Skip Page Navigation
NASA JPL Caltech
NASA Logo - Jet Propulsion Laboratory + View the NASA Portal
+ Center for Near-Earth Object Studies
JPL Home Earth Solar System Stars & Galaxies Technology
JPL Solar System Dynamics
BODIES ORBITS EPHEMERIDES TOOLS PHYSICAL DATA DISCOVERY FAQ SITE MAP
IMPORTANT: The SSD Announcement email list is now available. Major changes are coming in the near future, including possible hostname and/or URL changes. To be notified of such changes, subscribe to this email list.

Please visit this page for more details.


JPL Small-Body Database Browser
Search: [ help ]  
80537 (2000 AA75)
Classification: Main-belt Asteroid          SPK-ID: 2080537
Ephemeris | Orbit Diagram | Orbital Elements | Mission Design | Physical Parameters | Discovery Circumstances ]

[ show orbit diagram ]
Orbital Elements at Epoch 2458600.5 (2019-Apr-27.0) TDB
Reference: JPL 23 (heliocentric ecliptic J2000)
 Element Value Uncertainty (1-sigma)   Units 
e .1621458082655409 3.493e-08  
a 2.223348277818258 8.8532e-09 au
q 1.862841674255618 7.7379e-08 au
i 4.772508756870418 5.2329e-06 deg
node 151.698379073542 4.9714e-05 deg
peri 277.3446866070979 5.2796e-05 deg
M 313.5368206971575 1.9466e-05 deg
tp 2458756.784568242968
(2019-Sep-30.28456824)
6.5806e-05 TDB
period 1210.903890169788
3.32
7.2326e-06
1.98e-08
d
yr
n .2972985741663793 1.7757e-09 deg/d
Q 2.583854881380898 1.0289e-08 au
  Orbit Determination Parameters
   # obs. used (total)      800  
   data-arc span      8303 days (22.73 yr)  
   first obs. used      1997-03-11  
   last obs. used      2019-12-04  
   planetary ephem.      DE431  
   SB-pert. ephem.      SB431-N16  
   condition code      0  
   norm. resid. RMS      .5359  
   source      ORB  
   producer      Otto Matic  
   solution date      2019-Dec-14 07:46:56  

Additional Information
 Earth MOID = .883956 au 
 Jupiter MOID = 2.69787 au 
 T_jup = 3.626 
[ show covariance matrix ]

Ephemeris | Orbit Diagram | Orbital Elements | Mission Design | Physical Parameters | Discovery Circumstances ]

Physical Parameter Table
Parameter Symbol Value Units Sigma Reference Notes
absolute magnitude H 15.9   n/a MPO453228  
diameter diameter 4.242 km 0.028 urn:nasa:pds:neowise_diameters_albedos::2.0[mainbelt] (http://adsabs.harvard.edu/abs/2011ApJ...741...68M)  
geometric albedo albedo 0.054   0.004 urn:nasa:pds:neowise_diameters_albedos::2.0[mainbelt] (http://adsabs.harvard.edu/abs/2011ApJ...741...68M)  

80537 (2000 AA75)          Discovered 2000-Jan-05 by LINEAR at Socorro
Reference: 20040504/Numbers.arcLast Updated: 2004-07-16

Alternate Designations
 2000 AA75 = 1997 EW59 
Ephemeris | Orbit Diagram | Orbital Elements | Mission Design | Physical Parameters | Discovery Circumstances ]
ABOUT SSD CREDITS/AWARDS PRIVACY/COPYRIGHT GLOSSARY LINKS
FirstGov 2020-Jan-24 14:59 UT
(server date/time)  
NASA Home Page
Site Manager:   Ryan S. Park
Webmaster  Alan B. Chamberlin